Tracking 19709 objects as of 21-Jun-2019
HD Live streaming from Space Station
objects crossing your sky now

FENGYUN 1C DEB

Track FENGYUN 1C DEB now!
10-day predictions


NORAD ID: 31680
Int'l Code: 1999-025CCN
Perigee: 526.5 km
Apogee: 778.6 km
Inclination: 99.9 °
Period: 97.6 minutes
Semi major axis: 7023 km
RCS: 0.0075 m2 (small)
Launch date: May 10, 1999
Source: People's Republic of China (PRC)
Launch site: Taiyaun Space Center, China (TSC)

Note: This is SATELLITE DEBRIS
aabbcc
Your satellite tracking list
Your tracking list is empty




NASA's NSSDC Master Catalog

Two Line Element Set (TLE):
1 31680U 99025CCN 19170.87013786 +.00000373 +00000-0 +53107-4 0  9994
2 31680 099.8559 045.4649 0179472 047.3986 314.2197 14.74922223650356
Source of the keplerian elements: AFSPC